Williamtown Air Force Base, Australia

5:52 PM AEST on August 25, 2016 (GMT +1000)
Williamtown Military

Weather History for YWLM - November, 2013

Change the Weather History Date:

Sunday, November 3, 2013

  Actual Average Record
Temperature  
Mean Temperature 77 °F -  
Max Temperature 95 °F - - ()
Min Temperature 59 °F - - ()
Cooling Degree Days 12    
Growing Degree Days 27 (Base 50)    
Moisture  
Dew Point 45 °F    
Average Humidity 44    
Maximum Humidity 88    
Minimum Humidity 4    
Precipitation  
Precipitation 0.00 in - - ()
Sea Level Pressure  
Sea Level Pressure 29.87 in    
Wind  
Wind Speed 11 mph ()    
Max Wind Speed 31 mph    
Max Gust Speed 43 mph    
Visibility 6.2 miles    
Events Rain    
T = Trace of Precipitation, MM = Missing Value Source: Averaged Metar Reports

Daily Weather History Graph

Daily Weather History Graph

Search for Another Location

Airport or City:

Trip Planner

Search our weather history database for the weather conditions in past years. The results will help you decide how hot, cold, wet, or windy it might be!

Date:

Astronomy

Nov. 03, 2013 Rise Set
Actual Time 5:52 AM AEDT 7:20 PM AEDT
Civil Twilight 5:26 AM AEDT 7:46 PM AEDT
Nautical Twilight 4:54 AM AEDT 8:18 PM AEDT
Astronomical Twilight 4:22 AM AEDT 8:51 PM AEDT
Moon 5:25 AM AEDT (11/3) 7:02 PM AEDT (11/3)
Length of Visible Light 14h 20m
Length of Day
13h 28m
Waning Crescent, 0% of the Moon is Illuminated
Nov 3
Waning Crescent
Nov 3
New
Nov 10
First Quarter
Nov 18
Full
Nov 26
Last Quarter

Hourly Weather History & Observations

Time (AEDT) Temp. Dew Point Humidity Pressure Visibility Wind Dir Wind Speed Gust Speed Precip Events Conditions
12:00 AM 63 °F 55 °F 69% 29.94 in - WNW 4.6 mph - -  
12:00 AM 62.6 °F 55.4 °F 77% 29.92 in 6.2 mi WNW 4.6 mph - N/A   Unknown
12:30 AM 60.8 °F 55.4 °F 82% 29.92 in 6.2 mi NW 3.5 mph - N/A   Unknown
1:00 AM 60.8 °F 57.2 °F 88% 29.89 in 6.2 mi NNW 4.6 mph - N/A   Unknown
1:30 AM 60.8 °F 57.2 °F 88% 29.89 in 6.2 mi West 2.3 mph - N/A   Unknown
2:00 AM 63 °F 59 °F 81% 29.90 in - NNW 4.6 mph - -  
2:00 AM 62.6 °F 59.0 °F 88% 29.89 in 6.2 mi NNW 4.6 mph - N/A   Unknown
2:30 AM 64.4 °F 59.0 °F 83% 29.89 in 6.2 mi NW 5.8 mph - N/A   Unknown
3:00 AM 64 °F 59 °F 78% 29.88 in - West 5.8 mph - -  
3:00 AM 64.4 °F 59.0 °F 83% 29.86 in 6.2 mi West 5.8 mph - N/A   Unknown
3:30 AM 64.4 °F 57.2 °F 77% 29.86 in 6.2 mi NNW 8.1 mph - N/A   Unknown
4:00 AM 62.6 °F 57.2 °F 82% 29.86 in 6.2 mi SW 3.5 mph - N/A   Scattered Clouds
4:30 AM 62.6 °F 55.4 °F 77% 29.86 in 6.2 mi NW 6.9 mph - N/A   Unknown
5:00 AM 62 °F 54 °F 68% 29.88 in - NW 5.8 mph - -  
5:00 AM 60.8 °F 53.6 °F 77% 29.86 in 6.2 mi NW 5.8 mph - N/A   Unknown
5:30 AM 60.8 °F 51.8 °F 72% 29.86 in 6.2 mi NW 6.9 mph - N/A   Unknown
6:00 AM 64 °F 49 °F 47% 29.88 in - NW 9.2 mph - -  
6:00 AM 64.4 °F 48.2 °F 56% 29.86 in 6.2 mi NW 9.2 mph - N/A   Unknown
6:30 AM 66.2 °F 46.4 °F 49% 29.86 in 6.2 mi NW 9.2 mph - N/A   Unknown
7:00 AM 68.0 °F 46.4 °F 46% 29.89 in 6.2 mi NW 8.1 mph - N/A   Unknown
7:30 AM 71.6 °F 44.6 °F 38% 29.89 in - NW 8.1 mph - N/A   Unknown
8:00 AM 72 °F 45 °F 27% 29.88 in - NW 6.9 mph - -  
8:00 AM 71.6 °F 44.6 °F 38% 29.86 in 6.2 mi NW 6.9 mph - N/A   Unknown
8:30 AM 77.0 °F 42.8 °F 29% 29.86 in 6.2 mi NW 9.2 mph - N/A   Unknown
9:00 AM 80 °F 42 °F 16% 29.88 in - NW 9.2 mph - -  
9:00 AM 80.6 °F 42.8 °F 26% 29.86 in 6.2 mi NW 9.2 mph - N/A   Unknown
9:30 AM 82.4 °F 42.8 °F 25% 29.86 in 6.2 mi NNW 9.2 mph - N/A   Unknown
10:00 AM 84.2 °F 41.0 °F 22% 29.86 in 6.2 mi NW 11.5 mph - N/A   Unknown
10:30 AM 84.2 °F 39.2 °F 20% 29.86 in 6.2 mi NW 10.4 mph - N/A   Scattered Clouds
11:00 AM 87 °F 39 °F 10% 29.85 in - NW 9.2 mph - -  
11:00 AM 86.0 °F 39.2 °F 19% 29.83 in 6.2 mi NW 9.2 mph - N/A   Unknown
11:24 AM 93.2 °F 32.0 °F 11% 29.83 in - WNW 21.9 mph - N/A   Unknown
11:30 AM 93.2 °F 26.6 °F 9% 29.83 in 6.2 mi WNW 18.4 mph - N/A   Unknown
12:00 PM 94 °F 22 °F 4% 29.82 in - WNW 23.0 mph - -  
12:00 PM 95.0 °F 23.0 °F 8% 29.80 in 6.2 mi WNW 23.0 mph - N/A   Unknown
12:06 PM 93.2 °F 23.0 °F 8% 29.80 in 6.2 mi NW 25.3 mph 36.8 mph N/A   Unknown
12:11 PM 95.0 °F 26.6 °F 9% 29.80 in 6.2 mi West 21.9 mph - N/A   Unknown
12:30 PM 93.2 °F 19.4 °F 7% 29.80 in 6.2 mi WNW 21.9 mph 33.4 mph N/A   Unknown
1:00 PM 93.2 °F 23.0 °F 8% 29.77 in 6.2 mi West 19.6 mph 33.4 mph N/A   Unknown
1:30 PM 93.2 °F 24.8 °F 9% 29.77 in 6.2 mi West 24.2 mph - N/A   Unknown
2:00 PM 93 °F 27 °F 4% 29.78 in - West 19.6 mph - -  
2:00 PM 93.2 °F 26.6 °F 9% 29.77 in 6.2 mi West 19.6 mph - N/A   Unknown
2:30 PM 93.2 °F 32.0 °F 11% 29.74 in 6.2 mi West 17.3 mph - N/A   Unknown
2:50 PM 93.2 °F 28.4 °F 10% 29.74 in 6.2 mi WNW 17.3 mph 29.9 mph N/A   Unknown
3:00 PM 92 °F 32 °F 6% 29.75 in - WNW 18.4 mph - -  
3:00 PM 91.4 °F 32.0 °F 12% 29.74 in 6.2 mi WNW 18.4 mph - N/A   Unknown
3:13 PM 91.4 °F 32.0 °F 12% 29.74 in 6.2 mi WNW 17.3 mph 32.2 mph N/A   Unknown
3:33 PM 93.2 °F 30.2 °F 11% 29.71 in 6.2 mi WNW 21.9 mph 33.4 mph N/A   Unknown
4:00 PM 93.2 °F 28.4 °F 10% 29.71 in 6.2 mi West 23.0 mph - N/A   Unknown
4:30 PM 93.2 °F 33.8 °F 12% 29.71 in 6.2 mi West 17.3 mph - N/A   Unknown
5:00 PM 94 °F 31 °F 5% 29.73 in - WNW 18.4 mph - -  
5:00 PM 95.0 °F 32.0 °F 11% 29.71 in 6.2 mi WNW 18.4 mph - N/A   Unknown
5:24 PM 95.0 °F 28.4 °F 9% 29.71 in 6.2 mi West 20.7 mph 33.4 mph N/A   Unknown
5:57 PM 71.6 °F 62.6 °F 73% 29.80 in 6.2 mi South 28.8 mph 42.6 mph N/A   Scattered Clouds
6:00 PM 70 °F 62 °F 70% 29.83 in - South 31.1 mph - -  
6:00 PM 69.8 °F 62.6 °F 78% 29.80 in 6.2 mi South 31.1 mph 42.6 mph N/A   Scattered Clouds
6:04 PM 69.8 °F 62.6 °F 78% 29.83 in 5.6 mi South 29.9 mph 42.6 mph N/A   Mostly Cloudy
6:30 PM 68.0 °F 59.0 °F 73% 29.86 in 6.2 mi South 25.3 mph 39.1 mph N/A   Overcast
6:53 PM 68.0 °F 57.2 °F 68% 29.89 in 6.2 mi South 28.8 mph 42.6 mph N/A   Overcast
7:00 PM 68.0 °F 57.2 °F 68% 29.89 in 6.2 mi South 28.8 mph 42.6 mph N/A   Overcast
7:30 PM 66.2 °F 57.2 °F 73% 29.95 in 6.2 mi South 26.5 mph 38.0 mph N/A   Overcast
8:00 PM 65 °F 55 °F 62% 29.98 in - South 23.0 mph - -  
8:00 PM 66.2 °F 55.4 °F 68% 29.98 in 6.2 mi South 23.0 mph - N/A   Overcast
8:30 PM 64.4 °F 53.6 °F 68% 30.01 in 6.2 mi South 24.2 mph - N/A   Overcast
9:00 PM 65 °F 51 °F 50% 30.04 in - South 26.5 mph - -  
9:00 PM 64.4 °F 50.0 °F 59% 30.04 in 6.2 mi South 26.5 mph - N/A   Overcast
9:30 PM 64.4 °F 50.0 °F 59% 30.06 in 6.2 mi SSE 25.3 mph - N/A   Overcast
10:00 PM 64.4 °F 50.0 °F 59% 30.06 in 6.2 mi SSE 19.6 mph - N/A   Overcast
10:30 PM 64.4 °F 50.0 °F 59% 30.09 in 6.2 mi South 17.3 mph - N/A   Overcast
11:00 PM 64 °F 49 °F 48% 30.10 in - SSE 16.1 mph - -  
11:00 PM 64.4 °F 50.0 °F 59% 30.09 in 6.2 mi SSE 16.1 mph - N/A   Overcast
11:30 PM 62.6 °F 50.0 °F 63% 30.09 in 6.2 mi SSE 16.1 mph - N/A Rain Light Rain Showers